User: anonymous   Login
Location: Mentone
(34.5413°N, 85.5351°W)
Time: 03:45:26
(UTC-05:00)
Language:

Okean O Rocket - Orbit

View from above orbital plane
View from above orbital plane
View from above satellite
View from above satellite

Ground track
Ground track

The orbit data is extracted from the following two-line orbital elements,

1 25861U 99039B   18116.92729066  .00000026  00000-0  11007-4 0  9991
2 25861  98.1481  96.1348 0016391 148.0062 237.5982 14.78473945 12132
Epoch (UTC): 26 April 2018 22:15:17
Eccentricity: 0.0016391
inclination: 98.1481°
perigee height: 622 km
apogee height: 645 km
right ascension of ascending node: 96.1348°
argument of perigee: 148.0062°
revolutions per day: 14.78473945
mean anomaly at epoch: 237.5982°
orbit number at epoch: 1213

The dashed part of the orbit path shows where the satellite is in the earth's shadow,  

DLR